Terminal Aerodrome Forecast
Issued by NWS Buffalo, NY

Home | Current Version | Previous Version | Text Only | Print | Product List | Glossary On
Versions: 1 2 3 4 5 6 7 8 9 10 11 12 13 14 15 16 17 18 19 20 21 22 23 24 25
000
FTUS41 KBUF 230200 AAA
TAFART
TAF AMD
KART 230232Z 2303/2324 17004KT P6SM SKC
     FM230600 21007KT P6SM BKN200
     FM231000 22010KT P6SM VCSH BKN060
     FM231300 23010G18KT 6SM -TSRA OVC040CB
     FM231800 34008KT P6SM BKN030=

USA.gov is the U.S. government's official web portal to all federal, state and local government web resources and services.